Temp
10 11 12 12 12 13 13 13 13 13 13 13 13 13 13 13 13 13 14 13 14 15 15 15 15 15 17 17 19 22 22 22 22 22 22 23 22 22 21 22 22 25 25 25 26 24 24
8 9 9 10 11 11 12 12 13 12 13 13 13 13 12 12 12 13 13 13 13 14 14 15 15 15 14 17 22 23 22 22 22 23 24 23 23 23 23 23 22 23 22 23 24 24 24
8 8 9 9 9 9 10 10 11 12 12 12 12 12 12 12 12 12 13 13 13 14 14 15 15 14 14 17 23 22 23 22 23 23 23 24 24 22 21 21 23 23 22 21 22 23 24
8 8 8 8 9 9 9 9 9 10 10 11 11 12 12 12 12 12 12 12 12 13 14 15 14 13 13 21 21 22 22 23 23 23 23 23 23 22 21 21 22 22 21 19 22 22 22
8 8 8 8 8 8 8 8 8 8 9 9 11 11 11 11 12 12 11 11 12 12 13 14 14 13 15 21 21 22 23 23 23 23 23 23 22 20 20 20 18 19 18 20 22 21 21
7 7 7 7 7 8 8 8 7 8 8 8 9 10 11 12 11 11 11 11 11 11 13 13 14 14 17 20 22 22 22 23 22 22 21 21 19 18 18 17 17 19 19 21 20 21 21
8 8 7 7 7 7 7 7 7 8 8 8 8 9 10 11 11 11 10 11 11 11 12 15 16 17 21 22 22 22 23 22 22 21 18 19 17 16 17 18 21 21 22 21 22 22 22
8 8 7 7 7 7 7 7 7 8 8 8 8 8 9 9 10 10 9 10 10 10 12 16 16 18 19 20 20 21 23 20 19 17 19 18 16 19 21 22 22 22 21 20 21 22 21
7 7 7 7 7 7 7 7 7 7 7 8 8 8 8 9 9 9 9 10 10 10 10 14 17 18 19 20 19 20 21 19 19 18 18 17 19 21 22 21 21 21 20 20 20 20 21
7 7 7 7 7 7 7 7 7 7 7 8 8 8 8 9 8 8 7 10 10 10 11 14 14 17 19 21 19 22 22 20 19 18 19 19 21 21 21 21 21 19 20 20 20 18 17
6 6 6 6 7 7 7 7 7 7 7 7 8 7 8 8 8 7 10 10 10 11 12 18 19 21 20 20 20 21 22 20 19 19 20 19 21 20 20 20 21 19 19 18 18 17 16
6 6 6 6 6 6 6 6 6 7 7 7 8 7 8 7 7 8 9 9 9 10 12 16 19 19 19 19 20 21 20 20 20 19 19 19 21 19 19 21 21 18 18 18 17 16 13
5 5 5 5 5 6 6 6 6 6 7 7 7 7 7 7 7 8 8 8 9 11 15 17 18 19 19 19 19 19 19 18 18 16 17 19 20 21 21 18 18 17 15 13 14 14 14
5 5 5 5 5 5 5 6 6 6 6 7 7 7 7 7 7 8 7 8 10 13 15 19 19 19 18 19 19 19 18 17 19 18 17 17 16 18 19 18 16 15 15 11 15 14 16
5 4 4 4 4 4 5 5 6 6 6 6 7 6 6 6 7 7 7 8 10 12 16 16 17 17 16 18 19 18 17 16 18 18 15 16 18 19 19 19 18 16 14 17 15 16 14
5 4 4 4 4 4 5 5 5 5 6 6 6 6 7 7 6 6 7 8 10 12 14 16 15 16 16 17 18 16 16 18 18 18 19 18 17 19 18 18 18 17 17 13 13 14 14
4 4 4 4 4 4 4 4 5 5 5 6 6 5 8 7 6 6 7 7 10 13 14 14 14 14 16 17 18 17 16 18 18 19 19 18 14 16 16 14 15 15 13 15 14 13 13
3 3 3 4 4 4 4 4 4 5 5 5 5 5 6 6 6 5 6 9 11 12 13 13 14 13 14 15 16 17 17 17 18 18 18 16 13 13 15 16 17 16 15 15 10 14 13
3 3 3 3 3 3 3 4 4 4 5 5 3 5 6 6 6 6 7 9 10 12 12 13 13 13 13 14 13 16 16 18 17 16 16 15 11 12 15 14 16 14 16 16 15 13 12
3 3 3 3 3 3 3 3 3 4 4 4 4 4 4 6 5 7 7 7 9 11 12 13 13 13 12 12 13 13 15 16 15 15 13 14 13 12 14 14 13 13 15 16 15 11 12
3 3 2 2 3 3 3 3 3 3 4 4 3 4 5 5 5 5 8 9 9 9 12 12 12 12 12 11 12 12 13 14 14 13 12 11 10 13 14 13 15 15 15 15 12 13 12
2 2 2 2 2 3 3 3 3 3 4 3 3 4 5 5 7 6 7 8 10 10 11 11 11 12 12 12 12 13 13 12 12 12 10 11 10 12 12 13 13 15 14 14 14 14 15
3 3 2 2 2 3 3 3 3 3 3 4 3 5 5 6 6 7 7 8 9 11 12 13 12 12 12 12 13 13 12 12 12 10 9 9 10 10 9 11 12 12 12 13 10 13 14
2 2 2 3 2 2 2 2 3 3 3 3 4 5 4 5 6 6 8 9 10 10 10 12 12 12 13 12 10 9 11 12 12 11 10 9 10 9 11 12 10 13 16 16 14 13 13
1 2 2 2 2 1 2 3 3 3 3 3 4 5 5 5 7 8 5 8 9 10 11 12 13 14 11 9 7 8 8 7 10 12 11 11 10 8 9 11 13 14 15 14 14 12 13
0 1 1 1 3 3 3 4 3 4 4 3 4 5 6 5 6 9 9 9 8 8 9 10 12 10 10 8 7 8 8 8 8 10 12 11 10 9 10 11 10 11 14 15 15 8 10
0 1 3 3 3 3 2 2 3 3 3 4 4 5 6 5 7 8 8 9 10 9 8 9 10 9 10 7 8 9 9 10 9 9 9 9 9 10 10 9 9 12 13 14 11 7 8
3 3 3 2 2 2 2 2 3 3 2 3 2 3 6 6 6 8 10 10 9 9 8 8 8 7 7 8 10 7 7 8 9 10 10 10 9 8 9 8 8 12 13 11 8 8 8
2 2 2 2 2 2 3 3 3 3 2 2 3 3 4 5 5 7 10 10 9 11 10 9 9 6 6 7 7 8 7 6 8 8 10 8 7 8 9 8 10 11 10 10 9 8 7
Height
812 814 815 815 816 816 818 818 820 822 823 825 825 824 826 827 825 825 824 823 821 821 820 817 816 814 809 810 800 793 793 794 793 792 791 791 793 792 800 794 789 782 780 777 776 780 781
811 811 811 813 814 814 815 815 816 818 819 821 822 821 822 823 824 823 822 822 820 819 820 817 816 814 812 816 793 791 792 794 793 792 790 789 789 788 791 791 794 785 785 784 780 781 780
809 809 809 810 811 811 813 814 813 814 815 816 817 819 820 820 820 821 820 820 820 818 818 817 817 814 814 800 792 792 789 791 793 792 789 788 786 789 791 794 784 784 794 791 785 782 784
808 808 807 807 809 810 811 811 811 811 812 812 813 815 817 818 817 817 819 818 817 816 816 815 816 815 807 789 789 788 788 788 790 791 791 790 788 789 789 788 790 795 797 810 783 780 787
804 805 805 805 806 807 807 810 808 810 809 810 810 811 811 815 815 815 816 815 815 813 813 813 813 816 801 785 785 783 784 785 787 789 791 791 790 794 790 800 812 803 816 803 790 776 784
802 803 803 803 803 805 805 804 806 807 808 808 807 808 810 806 812 813 814 812 813 810 808 812 812 817 794 781 780 780 782 783 786 787 792 792 797 800 799 810 825 809 807 793 795 783 784
798 799 800 800 801 802 803 803 803 804 805 805 804 804 806 807 803 811 814 810 811 813 809 796 795 791 777 776 777 780 780 782 783 788 803 795 807 810 801 797 791 791 790 792 784 776 783
794 794 796 797 798 798 799 800 800 802 803 803 803 800 801 805 804 804 812 810 815 811 804 792 788 786 783 778 784 777 781 787 788 797 793 802 807 791 784 783 784 788 792 797 784 781 786
789 790 792 793 794 794 797 796 799 799 800 802 801 801 798 800 803 804 806 813 810 814 812 792 782 771 772 775 775 776 775 781 785 792 791 798 786 776 776 783 788 790 794 796 796 789 784
784 786 787 788 790 790 792 793 795 796 797 799 799 797 798 797 806 804 805 808 813 812 813 787 779 756 755 760 762 764 765 774 782 786 782 783 773 775 778 783 784 796 787 790 792 800 815
778 780 781 783 784 786 788 790 791 792 793 795 797 796 796 797 798 803 805 805 810 814 815 760 754 744 740 753 748 752 755 766 774 776 776 778 768 774 780 780 779 790 785 794 799 806 810
771 775 776 777 779 781 782 786 787 789 791 793 793 795 796 797 797 802 802 806 810 820 802 763 747 745 748 747 746 748 757 761 765 774 768 768 760 767 771 770 776 785 792 798 800 810 825
765 767 770 772 774 776 778 778 783 785 787 789 791 792 793 794 796 800 803 807 809 801 769 754 747 745 747 747 748 751 759 766 773 787 780 768 763 762 763 782 781 788 807 827 825 824 815
758 760 763 765 767 770 772 774 777 781 783 785 786 789 790 792 794 798 802 803 785 770 764 741 737 741 748 747 746 750 760 763 761 766 777 779 779 765 762 774 788 793 803 833 812 812 799
752 754 756 759 761 764 767 769 772 776 778 780 785 785 787 787 790 795 797 789 779 768 752 753 747 750 751 745 746 748 758 759 755 757 780 772 765 748 753 761 776 786 801 788 800 793 807
745 748 749 752 755 757 760 764 766 770 774 777 780 783 778 781 786 791 790 779 773 761 753 750 752 746 746 748 745 752 757 743 749 751 754 760 769 752 758 762 770 777 779 804 807 809 803
738 740 742 745 748 750 753 756 760 764 769 773 777 778 766 773 781 782 779 776 767 755 756 757 753 748 742 743 737 742 746 739 736 745 749 758 774 768 769 777 778 784 792 783 790 797 802
730 732 734 738 740 743 745 749 753 758 763 769 769 767 762 767 773 770 769 761 757 749 754 755 750 750 747 744 741 738 738 738 729 739 747 752 775 778 770 767 764 771 780 781 813 791 791
721 723 725 729 732 734 737 742 747 751 756 761 766 757 759 759 759 760 762 754 750 745 745 745 745 743 744 745 754 739 734 729 730 741 748 752 781 783 775 778 770 775 770 770 775 784 794
712 714 716 720 722 725 728 732 737 743 749 756 760 753 748 747 750 748 752 749 746 737 741 738 741 739 743 746 745 746 738 738 737 741 749 750 762 768 766 768 775 780 771 766 774 797 787
703 705 706 708 711 714 718 721 727 733 741 749 745 740 733 732 736 742 735 732 737 740 736 734 739 737 741 751 742 745 742 743 747 751 752 764 777 766 762 768 772 764 765 764 775 774 784
693 694 695 696 699 702 705 709 715 722 730 736 729 730 728 725 718 730 731 734 728 729 730 733 734 730 735 738 737 735 738 744 743 752 758 763 778 773 777 772 774 764 761 764 763 765 763
684 684 684 685 687 689 692 697 702 709 718 716 722 721 726 717 718 722 725 721 717 721 719 717 722 730 730 722 728 729 733 734 739 752 762 771 775 774 784 779 781 772 763 762 772 762 763
673 672 671 672 673 675 677 681 687 693 700 706 706 714 721 713 712 710 706 709 708 711 717 712 720 722 715 725 733 738 735 734 735 746 752 769 769 780 771 770 782 752 741 744 752 757 759
661 659 657 656 655 655 657 662 667 674 683 691 694 701 703 707 701 700 713 707 712 712 712 712 708 707 716 730 751 754 755 759 750 747 751 756 767 779 774 768 753 746 739 745 750 756 752
648 644 640 634 633 633 636 639 647 648 658 672 678 687 691 695 688 689 695 701 706 711 716 706 705 707 716 735 745 746 752 749 757 751 749 755 761 775 766 763 768 753 736 739 743 778 765
633 626 624 625 626 628 630 633 636 641 647 655 660 671 683 688 683 686 689 688 694 704 709 712 711 714 716 733 735 735 738 731 745 747 751 758 762 762 761 770 765 746 738 740 761 784 775
620 620 620 621 621 621 622 624 627 631 637 643 649 656 666 674 674 680 678 685 687 693 703 707 716 722 726 727 719 738 740 736 735 734 736 744 756 766 763 774 771 740 745 752 769 773 778
618 617 616 615 612 610 609 608 608 610 615 627 637 648 663 669 673 672 674 677 678 679 689 697 701 712 720 724 724 720 732 736 734 744 731 753 753 757 757 761 747 746 751 758 763 771 780
Wind_Speed
7 14 14 11 10 13 18 18 17 17 17 16 16 14 16 16 15 15 14 14 14 15 16 17 19 21 13 4 8 5 5 4 4 2 8 6 6 5 5 7 9 2 4 6 3 6 2
6 5 5 9 12 11 11 12 16 18 18 18 18 16 16 17 17 15 16 17 15 15 16 15 16 17 3 6 5 5 3 5 7 9 12 8 4 4 4 5 5 5 7 7 4 4 4
6 7 8 8 8 7 8 10 10 12 16 19 18 18 16 16 18 18 16 18 17 15 15 14 14 10 6 13 11 8 6 8 11 12 4 12 4 4 7 7 6 7 6 8 9 7 3
9 7 6 6 7 8 8 9 10 9 11 13 17 20 20 19 17 17 17 19 17 15 15 11 13 5 7 14 13 19 18 11 10 7 8 12 5 4 2 5 6 5 4 4 8 9 4
8 9 10 10 9 10 10 12 11 12 11 12 15 15 17 19 19 17 18 17 17 16 16 11 7 4 9 9 11 18 12 10 12 8 6 10 3 4 5 2 4 4 5 8 4 7 7
12 11 11 10 8 9 8 7 10 12 14 13 13 14 15 15 17 16 15 14 16 17 7 6 8 5 9 6 14 17 14 12 4 5 4 3 3 2 0 3 5 5 9 8 7 8 7
16 15 14 13 11 10 11 10 8 10 9 9 10 11 15 14 12 16 13 4 4 2 7 10 9 7 12 9 6 7 14 6 4 3 6 5 3 7 9 10 13 11 5 5 2 4 5
17 17 17 16 13 10 9 9 9 10 9 9 9 8 9 13 10 14 8 4 3 4 6 14 21 19 29 21 9 7 11 6 6 9 5 6 9 11 12 7 1 4 4 6 7 5 3
18 19 18 17 15 13 11 10 10 10 10 9 7 8 8 8 9 12 8 4 9 1 3 7 12 14 13 23 18 11 12 9 6 9 10 11 10 16 10 5 4 4 4 6 5 5 1
20 18 17 16 16 16 15 14 13 12 12 10 8 5 7 3 7 7 5 11 6 4 4 6 8 10 14 15 14 27 22 12 8 12 11 10 15 12 4 4 6 4 4 6 4 4 3
20 20 20 20 19 17 18 17 15 13 11 10 8 7 5 7 7 6 4 16 10 2 5 5 6 7 6 17 6 16 27 12 16 12 7 8 3 5 7 6 6 3 7 3 4 4 4
21 20 20 19 18 16 15 15 16 16 14 11 9 8 7 9 5 4 11 19 8 3 11 6 6 6 8 17 13 3 11 8 10 10 13 9 6 7 7 3 1 7 5 3 4 2 4
22 21 21 19 18 20 20 18 18 16 15 13 11 9 13 11 4 11 18 10 4 8 4 13 8 6 8 11 21 13 8 18 11 13 16 11 15 4 6 4 5 5 5 2 2 2 6
22 22 22 19 21 19 17 17 17 18 17 16 14 14 15 18 14 17 16 3 10 9 20 3 4 5 12 11 14 18 10 14 19 7 3 10 5 10 5 7 7 7 8 5 6 4 3
21 19 19 20 20 19 20 19 18 17 18 17 15 17 19 21 17 29 6 10 9 10 12 18 23 11 9 15 8 14 18 11 14 15 9 8 10 4 10 6 8 5 5 6 1 3 1
22 22 22 22 23 22 22 22 20 19 18 18 18 11 19 22 25 23 7 13 8 9 11 13 23 8 13 15 13 12 9 11 15 15 13 4 1 4 7 6 5 4 1 3 1 3 5
24 25 25 24 24 24 24 23 22 20 18 18 18 4 8 27 30 6 11 10 15 18 10 7 11 12 8 9 16 12 9 5 14 12 14 9 4 1 6 4 7 2 2 4 4 4 4
28 28 28 28 27 28 26 24 24 23 21 16 5 7 12 36 8 4 10 20 16 15 18 15 6 5 13 7 4 13 11 8 5 5 16 8 4 5 9 8 9 5 7 6 4 3 3
28 29 29 29 29 29 28 27 27 25 25 10 3 4 19 25 10 7 7 19 18 12 19 13 14 10 8 10 5 3 1 3 9 6 3 6 4 4 3 2 1 4 9 11 6 2 4
27 29 31 31 31 31 31 31 31 30 30 26 3 4 5 9 5 18 15 16 21 18 21 17 11 11 6 6 7 4 6 2 5 5 13 6 2 6 11 2 5 5 9 11 12 5 4
28 29 31 33 32 33 33 33 34 35 34 30 7 6 5 6 16 11 17 14 23 16 18 14 10 15 10 7 11 9 7 6 5 4 5 4 3 4 4 9 13 7 8 16 10 10 8
27 28 28 31 34 35 35 34 35 37 36 32 7 7 5 3 18 23 21 18 17 21 10 23 18 20 15 18 14 15 7 6 5 3 5 4 8 2 13 14 13 12 10 11 14 9 11
30 32 33 33 33 34 36 38 38 40 39 20 20 18 8 9 7 17 19 26 28 22 21 21 20 14 17 21 15 9 8 9 7 9 5 7 6 4 6 14 17 14 8 7 5 4 7
31 32 35 36 37 39 41 43 44 44 44 35 20 13 11 17 14 14 25 27 27 27 24 16 20 15 22 6 7 6 9 3 9 7 8 9 9 5 1 4 15 5 11 10 12 9 6
31 36 36 41 44 49 52 48 51 53 53 49 39 23 13 14 15 19 16 19 18 14 19 20 15 18 8 6 3 3 1 2 1 6 7 6 7 2 6 11 10 3 4 5 4 6 9
37 40 46 54 41 32 32 40 48 38 52 55 45 38 14 15 17 18 14 24 14 16 12 14 7 5 6 4 3 5 5 5 6 5 14 13 8 6 4 11 13 5 16 5 2 3 7
41 42 19 17 18 21 23 25 33 34 36 44 32 48 22 11 16 17 16 14 11 8 9 5 5 2 5 2 3 3 3 7 7 8 11 12 9 15 6 1 5 4 6 4 5 5 9
12 10 14 16 19 22 27 28 31 36 44 45 32 49 33 10 4 24 16 20 10 12 11 5 4 1 3 6 7 4 4 5 3 6 11 11 9 5 3 5 8 5 5 3 9 8 9
9 10 11 15 20 27 30 30 34 40 51 59 20 42 42 6 3 6 22 18 8 16 12 8 4 5 5 3 3 4 3 3 6 3 5 3 6 5 7 4 1 6 10 11 13 11 10
Wind_Direction
272 257 258 258 257 252 255 259 262 268 271 275 280 285 288 293 300 307 313 319 324 325 327 333 336 341 351 309 259 195 179 273 274 269 257 288 332 311 287 313 343 264 326 310 74 102 132
292 294 298 275 269 268 264 259 257 264 267 273 274 275 279 287 291 295 303 306 314 318 321 330 333 339 330 277 233 185 211 252 288 272 279 291 260 321 284 291 307 329 356 317 301 237 183
285 283 291 297 301 295 289 284 274 264 262 268 274 279 280 280 285 287 294 297 302 310 315 323 325 340 268 239 276 254 183 228 267 291 296 307 353 54 353 317 331 337 347 315 289 253 172
270 269 274 286 286 297 297 299 305 296 289 271 264 268 276 279 285 282 283 290 293 297 303 311 314 317 252 274 267 276 237 221 238 276 288 292 342 327 213 294 344 299 295 273 259 211 193
276 282 280 275 274 278 284 297 304 307 299 295 277 272 266 276 281 285 283 286 296 291 291 297 306 222 265 273 242 246 231 233 233 209 278 287 358 234 339 187 328 248 250 228 243 107 131
270 272 281 282 281 287 282 287 297 294 290 297 284 283 283 268 274 281 285 288 297 291 283 268 250 323 259 240 231 228 241 225 268 159 255 195 260 247 258 130 222 219 224 266 189 192 145
264 267 268 273 279 277 286 295 302 310 315 305 303 283 274 276 261 277 278 345 271 285 233 194 191 223 291 232 258 189 205 189 244 198 208 219 179 226 220 217 237 260 276 298 277 166 129
263 264 265 262 268 271 275 288 289 303 311 313 321 302 294 291 252 263 245 142 307 146 302 251 258 258 269 279 288 197 212 173 192 219 230 274 233 236 244 250 246 291 295 301 304 115 109
261 267 267 264 258 260 267 276 284 286 295 297 295 298 299 301 242 212 182 195 165 263 270 267 237 242 227 225 248 214 192 195 205 211 228 216 240 210 266 173 209 261 255 274 255 338 356
259 262 264 266 263 260 259 272 275 277 282 291 287 278 286 266 191 191 175 196 205 154 348 269 230 246 214 217 242 232 203 185 209 228 223 238 242 226 196 226 186 227 70 23 21 42 241
253 257 261 266 266 267 265 267 270 272 274 278 283 281 256 212 151 166 229 187 175 171 260 254 216 189 185 187 129 204 201 195 205 216 197 232 249 184 184 200 227 226 83 27 326 307 325
252 256 264 263 264 262 262 265 263 266 264 268 257 262 231 198 220 158 161 154 154 144 225 254 219 218 200 197 216 94 192 200 202 239 253 234 263 161 171 203 155 110 65 300 253 202 270
257 255 253 253 256 263 267 266 267 263 254 252 250 235 208 214 204 201 171 147 188 203 216 244 233 206 222 196 213 209 203 200 189 211 230 244 235 176 149 122 78 81 85 313 338 196 230
257 259 258 260 260 255 261 259 256 257 250 248 247 240 233 221 212 186 165 198 214 213 220 252 192 239 208 216 227 204 224 212 207 199 177 213 213 166 153 171 166 178 158 178 225 190 284
253 256 255 253 249 248 251 254 264 257 248 242 242 246 241 227 195 177 177 225 215 226 226 235 269 266 253 226 223 185 219 226 213 200 195 197 230 139 161 145 153 221 193 221 318 270 116
249 252 254 252 253 254 250 248 252 249 246 240 234 232 236 212 192 171 217 220 215 232 293 272 227 231 222 229 219 189 194 224 220 207 207 284 137 139 132 125 233 142 243 88 334 214 231
249 251 252 252 251 252 248 245 242 237 243 242 231 227 249 197 174 205 211 216 222 238 255 267 259 250 253 228 218 201 206 212 204 213 211 217 104 262 99 182 157 157 263 219 180 188 204
251 251 251 250 250 249 244 244 241 237 236 237 262 217 186 167 198 186 205 205 222 227 230 245 285 290 241 269 273 236 225 177 88 220 206 176 145 202 203 175 207 205 200 191 136 260 236
254 252 251 250 248 246 244 238 235 230 225 188 215 221 188 175 213 195 209 213 233 222 233 219 219 196 246 253 245 208 270 161 113 61 182 171 186 144 123 320 252 201 222 217 204 130 230
258 256 253 250 248 247 245 241 235 229 224 210 178 229 220 201 179 209 200 219 216 226 237 232 254 245 256 248 220 250 244 54 23 106 58 59 142 169 219 134 166 220 221 235 207 203 180
262 260 257 253 248 247 246 243 238 230 222 213 190 221 241 207 197 201 210 204 213 224 218 232 253 236 233 236 250 219 214 194 121 76 76 98 20 12 306 332 288 211 231 228 227 205 190
267 265 263 257 252 246 245 238 239 233 222 215 215 204 203 278 200 202 209 218 217 226 219 219 228 235 227 239 221 240 188 213 177 121 106 180 210 225 274 267 284 277 223 222 239 226 214
270 267 264 260 256 252 247 242 241 228 216 217 217 236 239 233 222 203 213 217 215 222 218 224 220 231 237 234 239 248 221 199 169 147 140 152 153 146 237 229 266 265 223 231 214 234 200
274 269 269 264 260 254 254 248 241 229 216 220 216 208 213 227 228 220 214 215 215 214 229 222 218 232 235 72 62 357 15 134 129 145 146 154 167 158 149 199 225 231 188 224 218 220 172
283 281 270 269 266 261 256 245 237 235 230 220 216 208 206 225 219 223 210 224 232 237 229 229 234 222 149 87 103 142 81 64 250 179 175 168 174 186 172 217 275 293 169 155 188 257 188
286 281 275 275 263 245 236 239 231 227 218 207 211 205 203 207 217 218 205 204 208 219 245 250 241 121 112 133 162 177 180 159 168 202 205 203 189 207 175 218 240 262 225 146 91 69 26
287 286 248 235 230 234 228 229 224 228 213 204 209 201 198 213 228 208 218 212 202 190 221 234 206 112 151 143 155 174 184 161 165 169 173 190 202 209 207 186 287 199 71 70 159 180 96
272 247 250 254 251 244 245 240 230 229 222 218 213 192 195 202 217 217 220 228 209 202 201 182 97 74 133 202 175 174 160 214 138 169 179 184 174 191 143 195 241 128 129 171 138 109 115
248 269 274 271 270 265 258 250 239 231 221 210 212 190 196 186 188 269 229 238 229 217 199 167 185 139 169 154 245 133 180 136 142 177 151 169 167 154 169 202 10 68 114 123 122 125 116